Location: Newark
(13.5236°S, 71.9791°W)
Time: 08:07:36
(UTC+00:00)

NOAA 19 - Visible Passes

Search period start: 20 September 2019 00:00
Search period end: 30 September 2019 00:00
Orbit: 840 x 862 km, 99.2° (Epoch: 19 September)

Date Brightness Start Highest point End Pass type
(mag) Time Alt. Az. Time Alt. Az. Time Alt. Az.
20 Sep 7.1 09:03:50 10° NE 09:08:34 31° ESE 09:13:21 10° SSE visible
20 Sep 8.5 23:23:49 10° SW 23:25:51 12° WSW 23:27:54 10° W visible
21 Sep 7.5 08:52:46 10° ENE 08:56:59 23° ESE 09:01:13 10° SSE visible
21 Sep 8.2 23:10:52 10° SW 23:14:17 17° WSW 23:17:41 10° WNW visible
22 Sep 8.0 08:41:59 10° ENE 08:45:24 17° ESE 08:48:50 10° SSE visible
23 Sep 8.3 08:31:45 10° E 08:33:50 12° ESE 08:35:56 10° SE visible
23 Sep 5.4 10:08:44 10° N 10:14:00 49° WNW 10:19:21 10° SSW visible
24 Sep 5.2 09:56:54 10° N 10:02:20 68° WNW 10:07:51 10° SSW visible
25 Sep 5.2 09:45:12 10° NNE 09:50:41 89° ESE 09:56:16 10° SSW visible
26 Sep 5.6 09:33:37 10° NNE 09:39:03 66° ESE 09:44:34 10° S visible
27 Sep 6.2 09:22:10 10° NNE 09:27:25 49° ESE 09:32:45 10° S visible
28 Sep 6.8 09:10:50 10° NE 09:15:48 36° ESE 09:20:50 10° S visible
29 Sep 7.4 08:59:41 10° NE 09:04:12 27° ESE 09:08:47 10° SSE visible
29 Sep 8.4 23:18:43 10° SW 23:21:31 14° WSW 23:24:18 10° WNW visible
